Погода Шахунья

Поиск расширенной информации на нашем сайте:

Полезная информация:

Новости сайта



02.01.2020
Опубликован Долгосрочный прогноз погоды по городам России и ближнего зарубежья на январь 2020 года.
Карты: Прогноз на январь и февраль 2020 года, Сравнение прогнозируемой аномалии приземной температуры воздуха на январь 2020 года по разным моделям.




Погода Шахунья - сегодня

Время (UTC), дата Ветер
(°,м/с) 
Видим.   Явления Облачность Т
(°С)
Тd
(°С)
f(%) Тe
(°С)
Pmin
(гПа)
dP
(гПа)
Po
(мм)
O2
(г/м3)
Тmin Tmax R s Состояние
почвы
00 29.11.20 100 (В) 4-7{08}  4000 м  слаб. снег  10/0 средняя 
[As op]
-5.5 -7.1 88 -9  1038.2  1.3  761  314           
03 29.11.20 110 (В) 4-7{08}  4000 м  слаб. снег  10/10 600 м 
[Ns]
-5.1 -6.8 88 -8  1039.1  0.9  762  314  -6.1    14  равномерный
сухой снег
100% 
06 29.11.20 110 (В) 4-6{08}  50000 м  {снег}  10/10 300 м 
[St]
-4.7 -6.4 88 -8  1040.3  1.2  763  314           
09 29.11.20 110 (В) 4-6{08}  2000 м  снег  10/10 300 м 
[Frnb|Ns]
-4.1 -5.8 88 -7  1041.4  1.1  764  313           
12 29.11.20 120 (ЮВ) 4-6{07}  20000 м  слаб. снег  10/10 300 м 
[Frnb|Ns]
-3.7 -5.2 89 -7  1041.9  0.5  764  313           
15 29.11.20 130 (ЮВ) 4-6{07}  4000 м  {снег}  10/10 200 м 
[St]
-3.1 -4.4 91 -6  1042.5  0.7  765  312    -3.1  0.7     
18 29.11.20 140 (ЮВ) 5-6{08}  4000 м  {снег}  10/10 200 м 
[St]
-2.9 -4 92 -6  1042.9  0.4  765  312           
21 29.11.20 130 (ЮВ) 4-7{07}  1000 м  дымка  10/10 200 м 
[St]
-2.9 -3.4 96 -6  1042.9  0.1  765  312           
00 30.11.20 130 (ЮВ) 4-7{09}  4000 м  дымка  10/10 200 м 
[St]
-2.1 -2.9 94 -5  1042.6  -0.3  765  311           
03 30.11.20 140 (ЮВ) 5-7{09}  4000 м  позёмок  10/10 200 м 
[St]
-1.5 -2.6 92 -5  1042.6  765  310  -3.1      14  равномерный
сухой снег
100% 
06 30.11.20 140 (ЮВ) 5-8{09}  50000 м  {снег}  10/0 средняя 
[Ac As]
-1.3 -2.8 90 -5  1042.5  -0.1  765  310           
09 30.11.20 140 (ЮВ) 5-7{10}  50000 м    3/0 верхняя 
[Ci fib]
-1.1 -4.4 78 -4  1041.8  -0.7  764  310           
12 30.11.20 140 (ЮВ) 6-8{09}  50000 м    9/9 600 м 
[Sc]
-3 -5.3 84 -7  1041  -0.9  764  312           
15 30.11.20 150 (ЮВ) 5-8{11}  4000 м  позёмок  6/6 600 м 
[Sc]
-5.2 -7.2 86 -9  1041.4  0.2  764  315    -1  0.0     
18 30.11.20 150 (ЮВ) 5-7{09}  4000 м    ясно 
-7.1 -8.9 87 -11  1041  -0.6  763  317           
21 30.11.20 160 (Ю) 5-9{09}  4000 м    ясно 
-7.2 -10 80 -11  1040.8  -0.2  763  317           
00 01.12.20 160 (Ю) 5-7{09}  4000 м    ясно 
-7.4 -10.6 78 -12  1041  0.2  763  317           
03 01.12.20 160 (Ю) 5-8{09}  4000 м    3/0 верхняя 
[Ci fib]
-8.4 -11.5 78 -13  1041.5  0.4  764  319  -8.4      14  равномерный
сухой снег
100% 
06 01.12.20 160 (Ю) 5-8{09}  50000 м    1/0 верхняя 
[Ci fib]
-8.3 -11.3 79 -13  1041.8  0.4  764  319  -8.5         
09 01.12.20 170 (Ю) 5-8{10}  50000 м  позёмок  3/0 верхняя 
[Ci fib]
-5.8 -10.7 68 -10  1041.4  -0.2  764  316           
12 01.12.20 170 (Ю) 4-8{09}  50000 м  позёмок  8/0 верхняя 
[Cs]
-6.1 -10.2 73 -9  1041.1  -0.3  764  316           
15 01.12.20 160 (Ю) 5-7{09}  4000 м    9/0 верхняя 
[Cs]
-8.2 -10.8 81 -13  1041.2  -0.2  763  318    -5.3       
21 01.12.20 170 (Ю) 4-7{08}  4000 м    9/0 верхняя 
[Cs]
-9.8 -11.6 87 -14  1041.5  0.2  764  320           
00 02.12.20 180 (Ю) 4-8{09}  4000 м    8/0 верхняя 
[Cs]
-8.9 -10.9 85 -13  1041.1  -0.3  763  319           
03 02.12.20 190 (Ю) 4-5{09}  4000 м    8/0 верхняя 
[Cs]
-8.9 -11.3 83 -13  1040.7  -0.4  763  319  -9.9      14  равномерный
сухой снег
100% 
Время (UTC), дата Ветер
(°,м/с) 
Видим.   Явления Облачность Т
(°С)
Тd
(°С)
f(%) Тe
(°С)
Pmin
(гПа)
dP
(гПа)
Po
(мм)
O2
(г/м3)
Тmin Tmax R s Состояние
почвы

Для получения пояснительной информации подведите курсор к названию столбца.

ПОГОДА Шахунья - архив

Всё, что Вы хотите узнать о погоде Шахунья - удобно и подробно!

Выберите нужную дату (начиная с 1 января 2019* года) и нажмите кнопку "Найти".
Будут отображены архивные сводки погоды по пункту Шахунья, начиная с указанной даты.


Отображать данные в формате CSV (для использования в таблицах Excel)


Внимание! Наш архив погоды предназначен исключительно для личного некоммерческого использования в познавательных целях. Если Вам необходимы официальные справки о состоянии погоды (для производственных, юридических, коммерческих и т.п. целей), обращайтесь в органы Росгидромета.

*Примечание: данная дата относится к архиву по метеостанциям СССР (Россия, СНГ, Балтия).
Архив по метеостанциям Зарубежной Европы и Азии (кроме Китая) хранится 10 дней, по другим регионам земного шара (Китай, Африка, Америка, Австралия, Океания) - 1 день.

Шахунья - район местоположения метеостанции


Название, широта, долгота, высота метеостанции:
Шахунья 57.7°ш. 46.6°д. 175 м над ур. моря [Российская Федерация]

Дополнительная информация

В oтличие oт бoльшинства пoгoдных сайтoв мы публикуем пoдрoбную метеoинфoрмацию в детальнoм прoфессиoнальнoм фoрмате.

Характеристики температуры и влажнoсти вoздуха измеряются на высoте 2 м в тени вдали oт зданий и деревьев.
Скoрoсть ветра измеряется на высoте 10 м (на урoвне рoста челoвека скoрoсть ветра ниже в 1.5-2 раза). Если метеoстанция нахoдится в гoрoде или в лесу, тo скoрoсть ветра занижена на 2-4 м/с пo сравнению с oткрытым местoм. Скoрoсть ветра над акватoриями крупных рек и oзёр, а также на вершинах хoлмoв на 2-5 м/с выше, чем в oбычных услoвиях.
Атмoсфернoе давление в разных тoчках местнoсти мoжет значительнo oтличаться oт давления на метеoстанции, в зависимoсти oт услoвий рельефа (при пoдъёме на 10 м давление пoнижается примернo на 1 мм рт.ст.).